Location: Shandelee
(41.8790°N, 74.8713°W)
Time: 04:07:24
(UTC+00:00)

SeaSat 1 - Pass Details

Date: 29 October 2020
Orbit: 744 x 747 km, 108.0° (Epoch: 23 November)

Event Time Altitude Azimuth Distance (km) Brightness Sun altitude
Exits shadow 23:00:02 13° 53° (NE) 2,064 4.2 -12.3°
Maximum altitude 23:00:43 13° 44° (NE) 2,043 4.3 -12.4°
Drops below altitude 10° 23:03:00 10° 16° (NNE) 2,272 4.7 -12.8°
Sets 23:06:26 0° 351° (N) 3,201 5.8 -13.5°
